Location: Melbourne
(37.8170°S, 144.9670°E)
Time: 14:24:02
(UTC+11:00)

ERBS - Visible Passes

Search period start: 27 January 2015 00:00
Search period end: 06 February 2015 00:00
Orbit: 460 x 474 km, 57.0° (Epoch: 26 January)

Date Brightness Start Highest point End Pass type
(mag) Time Alt. Az. Time Alt. Az. Time Alt. Az.
27 Jan 5.6 02:20:02 14° S 02:20:02 14° S 02:20:53 10° S visible
28 Jan 5.9 01:48:58 12° SSE 01:48:58 12° SSE 01:49:21 10° SSE visible
02 Feb 5.9 00:45:39 11° SSW 00:45:39 11° SSW 00:46:27 10° S visible
02 Feb 5.5 05:39:40 10° SSW 05:42:24 20° SE 05:45:11 10° E visible
02 Feb 4.8 22:38:19 15° SE 22:38:19 15° SE 22:39:05 10° SE visible
03 Feb 5.7 00:11:51 12° SW 00:13:16 14° SSW 00:15:08 10° S visible
03 Feb 5.6 05:08:06 10° S 05:10:27 16° SSE 05:12:53 10° ESE visible
03 Feb 2.4 22:00:00 10° NNW 22:03:35 59° NE 22:07:13 10° SE visible
03 Feb 5.5 23:38:53 10° WSW 23:41:17 16° SSW 23:43:38 10° S visible
04 Feb 5.8 04:36:36 10° S 04:38:30 14° SSE 04:40:29 10° ESE visible
04 Feb 2.8 21:28:18 10° NNW 21:31:46 43° NE 21:35:16 10° SE visible
04 Feb 5.3 23:06:35 10° W 23:09:20 19° SW 23:12:03 10° SSE visible
05 Feb 6.0 04:05:15 10° S 04:06:30 11° SSE 04:07:52 10° SE visible
05 Feb 2.7 05:40:49 10° SW 05:44:30 76° SE 05:48:10 10° NE visible
05 Feb 3.2 20:56:41 10° N 20:59:57 32° NE 21:03:17 10° ESE visible
05 Feb 5.0 22:34:21 10° W 22:37:23 24° SW 22:40:24 10° SSE visible
